[[[{"header":{"parameterUnit":"kt","parameterCategory":2,"dx":1,"dy":1,"la1":30.253999710083008,"la2":30.299108505249023,"lo1":-89.0895004272461,"lo2":-89.04439544677734,"nx":28,"ny":28,"refTime":"2022-09-23T21:00:00:Z","depth":0,"parameterNumber":1,"parameterNumberName":"U-component_of_WINDS"},"data":[-2.4728,-2.4792,-2.4794,-2.4868,-2.4882,-2.4932,-2.4951,-2.4975,-2.4995,-2.5055,-2.509,-2.5098,-2.5118,-2.516,-2.5197,-2.52,-2.5215,-2.5237,-2.5236,-2.5137,-2.5123,-2.511,-2.5094,-2.5241,-2.5241,-2.5338,-2.5338,-2.5339,-2.4657,-2.4672,-2.4712,-2.4751,-2.4785,-2.4765,-2.4795,-2.4824,-2.487,-2.4894,-2.4928,-2.4981,-2.5023,-2.5035,-2.5076,-2.5105,-2.5097,-2.5116,-2.5112,-2.5116,-2.501,-2.4994,-2.5122,-2.5122,-2.5122,-2.5122,-2.5122,-2.5122,-2.4529,-2.4567,-2.4592,-2.4634,-2.4654,-2.4681,-2.4717,-2.4726,-2.4764,-2.4806,-2.48,-2.4851,-2.4875,-2.4924,-2.494,-2.498,-2.4959,-2.4979,-2.4984,-2.4988,-2.4993,-2.4853,-2.4987,-2.4986,-2.4986,-2.4986,-2.4986,0,-2.4435,-2.4433,-2.4471,-2.4509,-2.454,-2.457,-2.4597,-2.4619,-2.4615,-2.4647,-2.4693,-2.4719,-2.4771,-2.4814,-2.4851,-2.4864,-2.4844,-2.4843,-2.4856,-2.4858,-2.4857,-2.4857,-2.4684,-2.4838,-2.4837,-2.4836,-2.4835,-2.4834,-2.4304,-2.4348,-2.4374,-2.44,-2.4414,-2.4457,-2.4482,-2.4475,-2.4502,-2.4534,-2.4567,-2.461,-2.4644,-2.4717,-2.4724,-2.4763,-2.4753,-2.4812,-2.4758,-2.476,-2.4752,-2.4749,-2.4753,-2.4821,-2.4823,-2.4824,-2.4825,0,-2.423,-2.4231,-2.4299,-2.4319,-2.4326,-2.4373,-2.4389,-2.4427,-2.443,-2.4482,-2.4494,-2.4498,-2.4543,-2.4541,-2.4591,-2.4589,-2.4666,-2.4656,-2.4658,-2.4655,-2.4706,-2.4701,-2.4875,-2.4897,-2.4746,-2.4748,-2.4749,0,-2.4117,-2.4175,-2.4173,-2.4213,-2.4278,-2.4268,-2.4332,-2.4341,-2.436,-2.4401,-2.4379,-2.4418,-2.4409,-2.4447,-2.4444,-2.4506,-2.4516,-2.4517,-2.4515,-2.4518,-2.4518,-2.453,-2.4522,-2.451,-2.4509,-2.4508,-2.4507,0,-2.3999,-2.4066,-2.4131,-2.4146,-2.4172,-2.4203,-2.4215,-2.4236,-2.4261,-2.4292,-2.4308,-2.4345,-2.4365,-2.4394,-2.4389,-2.4353,-2.4465,-2.4415,-2.4466,-2.4467,-2.4489,-2.4488,-2.4644,-2.4506,-2.4506,-2.4506,-2.4505,0,-2.3907,-2.3939,-2.4033,-2.4054,-2.4072,-2.4115,-2.415,-2.4186,-2.421,-2.421,-2.4234,-2.4218,-2.4273,-2.4222,-2.4298,-2.4252,-2.4273,-2.4279,-2.4283,-2.4286,-2.4229,-2.4316,-2.4467,-2.4482,-2.4292,-2.429,-2.4288,0,-2.3772,-2.3867,-2.3858,-2.3948,-2.399,-2.3961,-2.4009,-2.403,-2.4034,-2.4071,-2.4074,-2.4116,-2.4078,-2.409,-2.4129,-2.4134,-2.4193,-2.4126,-2.4178,-2.418,-2.4171,-2.4311,-2.4332,-2.4435,-2.4266,-2.4268,-2.427,0,-2.3667,-2.3697,-2.3713,-2.3729,-2.3756,-2.3791,-2.3846,-2.3884,-2.3909,-2.3936,-2.398,-2.4039,-2.4013,-2.4033,-2.4023,-2.4063,-2.4153,-2.4028,-2.4028,-2.405,-2.4254,-2.4275,-2.4292,-2.4137,-2.414,-2.4142,-2.4252,0,-2.3526,-2.3573,-2.3617,-2.3653,-2.368,-2.3735,-2.3731,-2.376,-2.3748,-2.3749,-2.3815,-2.3831,-2.387,-2.3888,-2.3876,-2.3967,-2.3951,-2.3922,-2.387,-2.3963,-2.3998,-2.4013,-2.3818,-2.3816,-2.3815,-2.3814,0,0,-2.3396,-2.3462,-2.3449,-2.3501,-2.3523,-2.349,-2.3549,-2.3567,-2.3602,-2.3617,-2.3589,-2.3674,-2.3687,-2.3767,-2.3796,-2.3812,-2.3827,-2.3795,-2.3919,-2.3931,-2.3942,-2.398,-2.3995,-2.3812,-2.3811,-2.3811,-2.381,0,-2.3342,-2.3358,-2.3416,-2.3434,-2.3459,-2.3457,-2.3472,-2.349,-2.3493,-2.3558,-2.3529,-2.3567,-2.3635,-2.3653,-2.367,-2.3786,-2.3761,-2.3798,-2.3862,-2.3906,-2.392,-2.3932,-2.3972,-2.3987,-2.3807,-2.3807,-2.3807,0,-2.3237,-2.3251,-2.3278,-2.3326,-2.3341,-2.3385,-2.3331,-2.338,-2.3413,-2.3373,-2.3436,-2.3444,-2.3467,-2.3544,-2.3578,-2.3553,-2.37,-2.3653,-2.3661,-2.3664,-2.3707,-2.3723,-2.3737,-2.3547,-2.3546,-2.3545,0,0,-2.3191,-2.3234,-2.3245,-2.3314,-2.3326,-2.3324,-2.3346,-2.3335,-2.3357,-2.3366,-2.3374,-2.3396,-2.3435,-2.3461,-2.3497,-2.3581,-2.3585,-2.3621,-2.3633,-2.3643,-2.3652,-2.3697,-2.3714,-2.3542,-2.3542,-2.3542,0,0,-2.3169,-2.3184,-2.3167,-2.3246,-2.3268,-2.3282,-2.3325,-2.3304,-2.3336,-2.3328,-2.3311,-2.3316,-2.3388,-2.3396,-2.3352,-2.3478,-2.3428,-2.3438,-2.347,-2.3485,-2.3497,-2.3493,-2.3297,0,0,0,0,0,-2.3111,-2.3182,-2.3167,-2.3179,-2.3238,-2.3291,-2.3299,-2.3286,-2.3251,-2.3285,-2.3289,-2.3261,-2.3369,-2.3329,-2.3342,-2.339,-2.3499,-2.3506,-2.3514,-2.3574,-2.359,-2.3604,0,0,0,0,0,0,-2.3116,-2.3131,-2.3165,-2.3182,-2.3195,-2.3289,-2.3226,-2.3225,-2.3247,-2.3241,-2.3261,-2.3261,-2.3252,-2.3322,-2.3334,-2.338,-2.3293,-2.3502,-2.3508,-2.3514,-2.358,-2.3593,-2.3604,0,0,0,0,0,-2.312,-2.3132,-2.3229,-2.3181,-2.3193,-2.3194,-2.3224,-2.3222,-2.3239,-2.3245,-2.3244,-2.3228,-2.3253,-2.3262,-2.3329,-2.3375,-2.3285,-2.3289,-2.3506,-2.3511,-2.3516,-2.3586,0,0,0,0,0,0,-2.3122,-2.3131,-2.3231,-2.3234,-2.3153,-2.3188,-2.3193,-2.3219,-2.324,-2.3241,-2.321,-2.3205,-2.3255,-2.3262,-2.3269,-2.3374,-2.3279,-2.3283,-2.3286,-2.351,-2.3514,-2.3517,0,0,0,0,0,0,-2.3124,-2.3133,-2.3232,-2.3197,-2.3196,-2.3183,-2.3188,-2.3242,-2.3241,-2.3205,-2.3201,-2.3207,-2.3245,-2.3262,-2.3267,-2.3353,-2.3274,-2.3278,-2.3281,-2.3282,-2.3513,-2.3516,0,0,0,0,0,0,-2.3128,-2.3136,-2.3196,-2.3196,-2.3194,-2.3227,-2.3231,-2.3291,-2.3212,-2.3204,-2.3204,-2.3201,-2.3246,-2.3251,-2.3266,-2.335,-2.3352,-2.3274,-2.3277,-2.3279,-2.328,0,0,0,0,0,0,0,-2.3131,-2.3079,-2.3213,-2.3194,-2.3193,-2.3261,-2.3262,-2.3263,-2.3211,-2.3208,-2.3205,-2.3202,-2.325,-2.3254,-2.3259,-2.3348,0,0,-2.3273,-2.3275,0,0,0,0,0,0,0,0,-2.3076,-2.3078,-2.3213,-2.3214,-2.3215,-2.3261,-2.3262,-2.3263,-2.321,-2.3208,-2.3206,-2.3203,-2.3251,-2.3255,-2.3258,0,0,0,0,0,0,0,0,0,0,0,0,0,0,0,-2.3213,-2.3214,0,-2.3262,-2.3262,-2.3263,-2.321,-2.3208,-2.3206,-2.3204,-2.3252,-2.3255,-2.3258,0,0,0,0,0,0,0,0,0,0,0,0,0,0,0,0,0,0,0,0,0,0,0,0,0,0,0,0,0,0,0,0,0,0,0,0,0,0,0,0,0,0,0,0,0,0,0,0,0,0,0,0,0,0,0,0,0,0,0,0,0,0,0,0,0,0,0,0,0]}],[{"header":{"parameterUnit":"kt","parameterCategory":2,"dx":1,"dy":1,"la1":30.253999710083008,"la2":30.299108505249023,"lo1":-89.0895004272461,"lo2":-89.04439544677734,"nx":28,"ny":28,"refTime":"2022-09-23T21:00:00:Z","depth":0,"parameterNumber":2,"parameterNumberName":"V-component_of_WINDS"},"data":[-1.6001,-1.6007,-1.5984,-1.5981,-1.5959,-1.5953,-1.5944,-1.5929,-1.5911,-1.5901,-1.5892,-1.5868,-1.5841,-1.5824,-1.5813,-1.5802,-1.5801,-1.5822,-1.5807,-1.5734,-1.5723,-1.5712,-1.571,-1.5821,-1.5821,-1.5887,-1.5888,-1.5888,-1.5957,-1.5936,-1.5925,-1.59,-1.5892,-1.5859,-1.5836,-1.5832,-1.5827,-1.5804,-1.5792,-1.5781,-1.5769,-1.5733,-1.5718,-1.5722,-1.5706,-1.572,-1.5721,-1.5718,-1.5638,-1.5637,-1.5734,-1.5734,-1.5734,-1.5733,-1.5733,-1.5733,-1.587,-1.5873,-1.5844,-1.5832,-1.5812,-1.5796,-1.5795,-1.5765,-1.5755,-1.5735,-1.5707,-1.5701,-1.5673,-1.564,-1.5623,-1.5619,-1.5598,-1.5606,-1.5609,-1.5613,-1.5622,-1.5538,-1.5614,-1.5613,-1.5613,-1.5613,-1.5612,0,-1.5799,-1.5779,-1.5766,-1.5748,-1.5738,-1.572,-1.57,-1.5699,-1.5645,-1.5639,-1.5628,-1.5617,-1.5596,-1.5583,-1.5562,-1.5541,-1.5507,-1.5498,-1.5504,-1.5521,-1.554,-1.5535,-1.5411,-1.5497,-1.5496,-1.5495,-1.5494,-1.5494,-1.5713,-1.5718,-1.5673,-1.5668,-1.565,-1.5642,-1.5632,-1.5584,-1.5576,-1.5543,-1.5548,-1.5533,-1.5519,-1.5504,-1.5469,-1.5452,-1.5436,-1.5472,-1.5433,-1.5449,-1.5442,-1.5444,-1.5446,-1.5482,-1.5484,-1.5485,-1.5486,0,-1.5668,-1.5627,-1.5626,-1.558,-1.5568,-1.5577,-1.5538,-1.5538,-1.5507,-1.5504,-1.5501,-1.5453,-1.5442,-1.5399,-1.5376,-1.5355,-1.5372,-1.5354,-1.5384,-1.5379,-1.5411,-1.541,-1.5511,-1.5524,-1.5404,-1.5405,-1.5406,0,-1.558,-1.5588,-1.5526,-1.5527,-1.5535,-1.5485,-1.5494,-1.5468,-1.5441,-1.5438,-1.5389,-1.5388,-1.5332,-1.5324,-1.5292,-1.5297,-1.5291,-1.5276,-1.5269,-1.5283,-1.5286,-1.528,-1.5277,-1.5244,-1.5243,-1.5243,-1.5243,0,-1.5517,-1.549,-1.5491,-1.5479,-1.5429,-1.5431,-1.541,-1.5378,-1.5368,-1.5347,-1.534,-1.5319,-1.5309,-1.5294,-1.5253,-1.5229,-1.5257,-1.5214,-1.5242,-1.5244,-1.5253,-1.5253,-1.5351,-1.5242,-1.5242,-1.5242,-1.5242,0,-1.544,-1.5419,-1.5426,-1.5384,-1.5379,-1.5379,-1.5356,-1.5345,-1.5314,-1.5294,-1.5277,-1.5239,-1.5236,-1.5199,-1.5196,-1.5177,-1.517,-1.5154,-1.5155,-1.5155,-1.5115,-1.5181,-1.5274,-1.5285,-1.5152,-1.5152,-1.5151,0,-1.5382,-1.5376,-1.5333,-1.5339,-1.5331,-1.5278,-1.5277,-1.525,-1.5222,-1.5211,-1.518,-1.5167,-1.5129,-1.5119,-1.5123,-1.5091,-1.5116,-1.5085,-1.5075,-1.5075,-1.509,-1.5174,-1.5201,-1.5258,-1.514,-1.5141,-1.5142,0,-1.5331,-1.5268,-1.5272,-1.5256,-1.5211,-1.5202,-1.52,-1.5176,-1.5172,-1.5144,-1.5144,-1.5122,-1.5094,-1.5077,-1.5043,-1.505,-1.5097,-1.5018,-1.5016,-1.5038,-1.5129,-1.5156,-1.5166,-1.5074,-1.5075,-1.5076,-1.5134,0,-1.5233,-1.5222,-1.5229,-1.5191,-1.5177,-1.5176,-1.5129,-1.512,-1.509,-1.5059,-1.5054,-1.5018,-1.4993,-1.4989,-1.4958,-1.4985,-1.4975,-1.4943,-1.4905,-1.496,-1.4978,-1.4985,-1.4883,-1.4881,-1.488,-1.4879,0,0,-1.519,-1.5172,-1.5123,-1.5118,-1.5103,-1.5046,-1.5051,-1.5029,-1.4987,-1.4979,-1.4956,-1.4922,-1.4892,-1.4892,-1.4905,-1.4892,-1.4894,-1.4876,-1.4933,-1.494,-1.4945,-1.4966,-1.4974,-1.4877,-1.4876,-1.4876,-1.4875,0,-1.5144,-1.5114,-1.5117,-1.5093,-1.5054,-1.5021,-1.5022,-1.4974,-1.4954,-1.4946,-1.49,-1.4891,-1.4861,-1.4839,-1.4824,-1.4874,-1.4841,-1.4869,-1.4915,-1.4923,-1.4931,-1.4937,-1.496,-1.4968,-1.4872,-1.4873,-1.4873,0,-1.5088,-1.5052,-1.5047,-1.5008,-1.4982,-1.4972,-1.492,-1.4911,-1.4904,-1.4841,-1.4834,-1.4807,-1.4771,-1.4774,-1.4773,-1.4753,-1.4795,-1.4771,-1.4777,-1.4777,-1.4782,-1.4792,-1.48,-1.4689,-1.4689,-1.4688,0,0,-1.5055,-1.5043,-1.4988,-1.4994,-1.4981,-1.493,-1.4919,-1.4887,-1.4855,-1.4842,-1.4807,-1.4778,-1.4761,-1.475,-1.4731,-1.474,-1.4731,-1.475,-1.4759,-1.4766,-1.477,-1.4777,-1.4787,-1.4687,-1.4687,-1.4687,0,0,-1.5039,-1.4976,-1.495,-1.495,-1.4922,-1.4868,-1.4874,-1.4841,-1.4818,-1.4813,-1.4757,-1.4747,-1.4748,-1.4723,-1.4707,-1.4717,-1.468,-1.4683,-1.4734,-1.4744,-1.4753,-1.476,-1.4649,0,0,0,0,0,-1.4967,-1.4984,-1.4961,-1.4954,-1.4902,-1.4881,-1.4874,-1.4828,-1.4804,-1.481,-1.4775,-1.4738,-1.4704,-1.4689,-1.4682,-1.4701,-1.4666,-1.467,-1.4673,-1.4741,-1.4753,-1.4762,0,0,0,0,0,0,-1.4964,-1.4955,-1.4961,-1.4908,-1.4896,-1.4879,-1.4829,-1.4817,-1.4802,-1.4795,-1.4746,-1.4736,-1.4697,-1.4689,-1.4684,-1.4702,-1.4651,-1.4667,-1.4671,-1.4673,-1.4745,-1.4754,-1.4762,0,0,0,0,0,-1.4961,-1.4954,-1.4882,-1.4908,-1.4897,-1.4841,-1.4828,-1.4817,-1.4805,-1.475,-1.4739,-1.4772,-1.4699,-1.4691,-1.4685,-1.4706,-1.4654,-1.4652,-1.467,-1.4672,-1.4674,-1.475,0,0,0,0,0,0,-1.4959,-1.4944,-1.4879,-1.4874,-1.4897,-1.4841,-1.483,-1.4818,-1.476,-1.475,-1.4774,-1.4769,-1.47,-1.4694,-1.4689,-1.471,-1.4656,-1.4655,-1.4654,-1.4671,-1.4673,-1.4675,0,0,0,0,0,0,-1.4948,-1.4941,-1.4876,-1.4866,-1.4859,-1.4841,-1.4832,-1.4819,-1.476,-1.4786,-1.4781,-1.4772,-1.4708,-1.4696,-1.4692,-1.4674,-1.4658,-1.4657,-1.4656,-1.4655,-1.4673,-1.4674,0,0,0,0,0,0,-1.4944,-1.4938,-1.4867,-1.4862,-1.4856,-1.4798,-1.4829,-1.4778,-1.4751,-1.479,-1.4748,-1.4746,-1.4712,-1.4706,-1.4694,-1.4678,-1.4675,-1.4658,-1.4657,-1.4656,-1.4656,0,0,0,0,0,0,0,-1.4941,-1.4994,-1.4908,-1.4859,-1.4853,-1.4829,-1.4828,-1.4826,-1.4751,-1.4749,-1.4748,-1.4747,-1.4668,-1.4666,-1.4664,-1.4682,0,0,-1.4658,-1.4658,0,0,0,0,0,0,0,0,-1.4995,-1.4994,-1.4908,-1.4907,-1.4906,-1.4829,-1.4828,-1.4827,-1.4751,-1.4749,-1.4748,-1.4747,-1.4667,-1.4666,-1.4664,0,0,0,0,0,0,0,0,0,0,0,0,0,0,0,-1.4908,-1.4907,0,-1.4829,-1.4828,-1.4827,-1.475,-1.4749,-1.4748,-1.4748,-1.4667,-1.4666,-1.4664,0,0,0,0,0,0,0,0,0,0,0,0,0,0,0,0,0,0,0,0,0,0,0,0,0,0,0,0,0,0,0,0,0,0,0,0,0,0,0,0,0,0,0,0,0,0,0,0,0,0,0,0,0,0,0,0,0,0,0,0,0,0,0,0,0,0,0,0,0]}]]]